SCSE

La Florida Airport

Airport
ICAO code
SCSE
IATA Code
LSC
Summary
ICAO Region
CARSAM
ICAO Territory
Location

La Antena, Coquimbo

Serving
La Serena
Elevation
481 ft
Coordinates
29° 54' 58" S , 71° 11' 58" W
KCC
Metar
SCSE 242000Z 30011KT CAVOK 17/11 Q1022

Airport in La Serena, Chile.

Climatology

Cool desert climate (Köppen climate classification BWk)

Runways

Designator Length Width Surface Rops
11/29 1938 45 ASP Yes/Yes

Airport map

Aerial View

SKYbrary Partners:

Safety knowledge contributed by: